Regional Weather Roundup
Issued by NWS

Home | Current Version | Previous Version | Text Only | Print | Product List | Glossary Off
Versions: 1 2 3 4 5 6 7 8 9 10 11 12 13 14 15 16 17 18 19 20 21 22 23 24 25 26 27 28 29 30 31 32 33 34 35 36 37 38 39 40 41 42 43 44 45 46 47 48 49 50

000
ASUS45 KCYS 051010
RWRWY

WYOMING REGIONAL WEATHER ROUNDUP
NATIONAL WEATHER SERVICE CHEYENNE WY
400 AM MDT SUN JUL 05 2015

NOTE:  "FAIR" INDICATES FEW OR NO CLOUDS BELOW 12,000 FEET
WITH NO SIGNIFICANT WEATHER AND/OR OBSTRUCTIONS TO VISIBILITY.

WYZ001-051100-
YELLOWSTONE NATIONAL PARK

CITY           SKY/WX    TMP DP  RH WIND       PRES   REMARKS
LK YELLOWSTONE   N/A     48  38  68 CALM      30.14S
W YELLOWSTONE  NOT AVBL

$$
WYZ002>013-054>058-071-098>099-051100-
NORTHERN WYOMING

CITY           SKY/WX    TMP DP  RH WIND       PRES   REMARKS
JACKSON        FAIR      54  45  71 NW3       30.05S
CODY           FAIR      68  43  40 CALM      29.88R
GREYBULL       FAIR      71  47  42 N6        29.77S
WORLAND        FAIR      68  48  48 CALM      29.80S
SHERIDAN       FAIR      64  54  69 S5        29.77F
BUFFALO        FAIR      75  50  41 SW3       29.85F
GILLETTE       FAIR      72  56  57 S16G23    29.81F
HULETT         FAIR      68  54  60 CALM      29.82F
NEWCASTLE      FAIR      64  57  77 SE7       29.86R

$$
WYZ014>020-022>026-101>103-051100-
CENTRAL WYOMING

CITY           SKY/WX    TMP DP  RH WIND       PRES   REMARKS
BIG PINEY      MOCLDY    58  39  49 NE8       30.10F
PINEDALE       FAIR      52  41  66 W5        30.12S
DUBOIS         FAIR      54  34  47 NW12      30.08S
LANDER         FAIR      70  42  36 SW8       29.93S
RIVERTON       FAIR      67  44  43 SW9       29.93R
CASPER         FAIR      75  45  34 S14       29.90F
DOUGLAS        FAIR      60  52  74 CALM      29.90F

$$
WYZ021-027>030-104>119-051100-
SOUTHERN WYOMING

CITY           SKY/WX    TMP DP  RH WIND       PRES   REMARKS
EVANSTON       CLOUDY    64  49  57 SW13      30.15S
KEMMERER       CLOUDY    64  45  48 W9        30.14S
FORT BRIDGER   PTSUNNY   68  48  49 SW8       30.16R
ROCK SPRINGS   MOCLDY    69  46  43 SW9       30.10R
DIXON          CLOUDY    59  49  69 NE3       30.15F
RAWLINS        FAIR      65  46  50 SW8       30.08F
SARATOGA       FAIR      61  45  55 S9        30.13S
LARAMIE        FAIR      59  48  67 SW9       30.12F
CHEYENNE       FAIR      65  48  54 W3        30.01F
TORRINGTON     FAIR      61  56  83 NE3       29.86F
PINE BLUFFS    FAIR      59  54  82 CALM      29.96F

$$


USA.gov is the U.S. government's official web portal to all federal, state and local government web resources and services.